Terminal Aerodrome Forecast
Issued by NWS Missoula, MT

Home | Current Version | Previous Version | Text Only | Print | Product List | Glossary On
Versions: 1 2 3 4 5 6 7 8 9 10 11 12 13 14 15 16 17 18 19 20 21 22 23
000
FTUS45 KMSO 180520
TAFBTM
TAF
KBTM 180520Z 1806/1906 00000KT P6SM BKN140
     FM181200 00000KT P6SM BKN070=

USA.gov is the U.S. government's official web portal to all federal, state and local government web resources and services.